MANDRAKE 2 BAKER (48908 NORAD) Tracking and Keplerian Element Data

This shows tracking and keplerian element data for the satellite.

Feedback or suggestion? Click here.




ElementValue
Catalog48908
NameMANDRAKE 2 BAKER
Epoch Orbit1282
Epoch Day261.64211239
Epoch Year2021
RAAN29.1952
Inclination97.5209
Eccentricity0.0009939
Argument of Perigee319.4246
Mean Anonmoly40.6243
Mean Motion15.12520969
Decay Rate6.08E-06
L11 48908U 21059AF 21261.64211239 .00000608 00000-0 38621-4 0 9994
L22 48908 97.5209 29.1952 0009939 319.4246 40.6243 15.12520969 12822

Live tracking and technical data element details for MANDRAKE 2 BAKER (NORAD 48908). MANDRAKE 2 BAKER can be tracked NOW for your location showing map with azimuth and elevation plus other details from your city location.

Track the satellite on the map from your city or location and see movement details for azimuth, elevation, latitude, longitude, range, height, and movement on the map or in text.







IsCatalogInMostPopularTable: catalog: 48908, numindb: 17
Update: records affected: 1



GetName: 48908 MANDRAKE 2 BAKER

Hit Count: updated at: Fri, 24 Sep 2021 18:38:11 GMT